TimePST,TemperatureF,Dew PointF,Humidity,Sea Level PressureIn,VisibilityMPH,Wind Direction,Wind SpeedMPH,Gust SpeedMPH,PrecipitationIn,Events,Conditions,WindDirDegrees,DateUTC
12:15 AM,35.6,35.6,100,30.18,5.0,Calm,Calm,-,N/A,,Clear,0,2014-01-02 08:15:00
12:35 AM,35.6,35.6,100,30.18,5.0,Calm,Calm,-,N/A,,Clear,0,2014-01-02 08:35:00
12:55 AM,35.6,35.6,100,30.18,5.0,Calm,Calm,-,N/A,,Clear,0,2014-01-02 08:55:00
1:15 AM,33.8,33.8,100,30.17,5.0,Calm,Calm,-,N/A,,Clear,0,2014-01-02 09:15:00
1:35 AM,33.8,33.8,100,30.17,5.0,Calm,Calm,-,N/A,,Clear,0,2014-01-02 09:35:00
1:55 AM,35.6,35.6,100,30.17,5.0,Calm,Calm,-,N/A,,Clear,0,2014-01-02 09:55:00
2:15 AM,33.8,33.8,100,30.17,5.0,Calm,Calm,-,N/A,,Clear,0,2014-01-02 10:15:00
2:35 AM,33.8,33.8,100,30.17,5.0,Calm,Calm,-,N/A,,Clear,0,2014-01-02 10:35:00
2:55 AM,33.8,33.8,100,30.18,5.0,Calm,Calm,-,N/A,,Clear,0,2014-01-02 10:55:00
3:15 AM,33.8,33.8,100,30.17,5.0,Calm,Calm,-,N/A,,Clear,0,2014-01-02 11:15:00
3:35 AM,33.8,33.8,100,30.17,5.0,Calm,Calm,-,N/A,,Clear,0,2014-01-02 11:35:00
3:55 AM,32.0,32.0,100,30.16,5.0,ESE,3.5,-,N/A,,Clear,120,2014-01-02 11:55:00
4:15 AM,33.8,33.8,100,30.16,5.0,ESE,3.5,-,N/A,,Clear,110,2014-01-02 12:15:00
4:35 AM,33.8,33.8,100,30.17,5.0,Calm,Calm,-,N/A,,Clear,0,2014-01-02 12:35:00
4:55 AM,33.8,33.8,100,30.17,5.0,Calm,Calm,-,N/A,,Clear,0,2014-01-02 12:55:00
5:15 AM,33.8,33.8,100,30.17,5.0,Calm,Calm,-,N/A,,Clear,0,2014-01-02 13:15:00
5:35 AM,33.8,33.8,100,30.17,4.0,Calm,Calm,-,N/A,,Clear,0,2014-01-02 13:35:00
5:55 AM,32.0,32.0,100,30.17,5.0,Calm,Calm,-,N/A,,Clear,0,2014-01-02 13:55:00
6:45 AM,32.0,32.0,100,30.17,5.0,Calm,Calm,-,N/A,,Haze,0,2014-01-02 14:45:00
7:45 AM,33.8,33.8,100,30.18,5.0,Calm,Calm,-,N/A,,Haze,0,2014-01-02 15:45:00
8:45 AM,39.2,39.2,100,30.20,5.0,Calm,Calm,-,N/A,,Haze,0,2014-01-02 16:45:00
9:45 AM,48.2,39.2,71,30.21,4.0,Calm,Calm,-,N/A,,Haze,0,2014-01-02 17:45:00
10:45 AM,53.6,35.6,51,30.20,4.0,Calm,Calm,-,N/A,,Haze,0,2014-01-02 18:45:00
11:45 AM,57.2,35.6,44,30.16,4.0,Calm,Calm,-,N/A,,Haze,0,2014-01-02 19:45:00
12:45 PM,62.6,35.6,37,30.13,4.0,Calm,Calm,-,N/A,,Haze,0,2014-01-02 20:45:00
1:45 PM,64.4,33.8,32,30.10,4.0,Calm,Calm,-,N/A,,Haze,0,2014-01-02 21:45:00
2:45 PM,64.4,33.8,32,30.09,5.0,Calm,Calm,-,N/A,,Haze,0,2014-01-02 22:45:00
3:45 PM,64.4,35.6,34,30.08,5.0,Calm,Calm,-,N/A,,Haze,0,2014-01-02 23:45:00
4:45 PM,57.2,35.6,44,30.08,5.0,Calm,Calm,-,N/A,,Haze,0,2014-01-03 00:45:00
5:45 PM,57.2,35.6,44,30.07,5.0,Variable,4.6,-,N/A,,Haze,0,2014-01-03 01:45:00
6:45 PM,46.4,37.4,71,30.08,5.0,Calm,Calm,-,N/A,,Haze,0,2014-01-03 02:45:00
7:45 PM,42.8,37.4,81,30.08,6.0,Calm,Calm,-,N/A,,Haze,0,2014-01-03 03:45:00
8:15 PM,41.0,37.4,87,30.08,5.0,Calm,Calm,-,N/A,,Clear,0,2014-01-03 04:15:00
8:35 PM,39.2,37.4,93,30.08,5.0,Calm,Calm,-,N/A,,Clear,0,2014-01-03 04:35:00
8:45 PM,39.2,37.4,93,30.08,6.0,Calm,Calm,-,N/A,,Haze,0,2014-01-03 04:45:00
8:55 PM,39.2,37.4,93,30.08,6.0,Calm,Calm,-,N/A,,Clear,0,2014-01-03 04:55:00
9:15 PM,39.2,39.2,100,30.08,7.0,Calm,Calm,-,N/A,,Clear,0,2014-01-03 05:15:00
9:35 PM,39.2,39.2,100,30.09,6.0,Calm,Calm,-,N/A,,Clear,0,2014-01-03 05:35:00
9:55 PM,39.2,39.2,100,30.09,7.0,Calm,Calm,-,N/A,,Clear,0,2014-01-03 05:55:00
10:15 PM,39.2,39.2,100,30.09,7.0,Calm,Calm,-,N/A,,Clear,0,2014-01-03 06:15:00
10:35 PM,39.2,39.2,100,30.09,6.0,Calm,Calm,-,N/A,,Clear,0,2014-01-03 06:35:00
10:55 PM,37.4,37.4,100,30.09,6.0,Calm,Calm,-,N/A,,Clear,0,2014-01-03 06:55:00
11:15 PM,37.4,37.4,100,30.09,5.0,Calm,Calm,-,N/A,,Clear,0,2014-01-03 07:15:00
11:35 PM,37.4,37.4,100,30.09,5.0,Calm,Calm,-,N/A,,Clear,0,2014-01-03 07:35:00
11:55 PM,37.4,37.4,100,30.09,6.0,Calm,Calm,-,N/A,,Clear,0,2014-01-03 07:55:00